This demonstration page uses our WeatherBlox Daily Observations layout. Learn more.

Left ArrowRight Arrow

38.83388, -104.82136

Hourly Observations for January 1, 2021

Temp ( °F °C ) Dew Point ( °F °C ) Humidity (%) Winds ( mph kmh ) Pressure ( in mb ) Visibility ( mi km ) Precip ( " mm )
12:58 am 00:58 Clear 30 -1 9 -12.9 40 40 NNW 10 17 29.66 1005 10 16 0.00 0.00
1:58 am 01:58 Mostly Cloudy 27 -2.7 9 -12.7 47 47 N 16 26 29.70 1006 10 16 0.00 0.00
2:58 am 02:58 Clear 30 -1.1 13 -10.6 49 49 NW 14 22 29.74 1007 10 16 0.00 0.00
3:58 am 03:58 Clear 31 -0.7 13 -10.5 48 48 NNW 12 19 29.71 1006 10 16 0.00 0.00
4:58 am 04:58 Clear 27 -2.7 12 -11 53 53 NNW 12 19 29.75 1007 10 16 0.00 0.00
5:58 am 05:58 Clear 26 -3.3 13 -10.6 57 57 NNW 13 20 29.78 1008 10 16 0.00 0.00
6:58 am 06:58 Mostly Cloudy 26 -3.3 14 -10.2 59 59 NNW 10 17 29.79 1009 10 16 0.00 0.00
7:58 am 07:58 Mostly Cloudy 28 -2.4 13 -10.8 53 53 NNW 10 17 29.83 1010 10 16 0.00 0.00
8:58 am 08:58 Cloudy 30 -1.2 15 -9.7 53 53 NNW 9 15 29.84 1011 10 16 0.00 0.00
9:58 am 09:58 Mostly Cloudy 34 1.3 14 -10 43 43 NNW 14 22 29.84 1011 10 16 0.00 0.00
10:58 am 10:58 Cloudy 33 0.8 16 -8.8 49 49 NNW 12 19 29.84 1011 10 16 0.00 0.00
11:58 am 11:58 Mostly Cloudy 35 1.5 18 -7.8 50 50 N 9 15 29.79 1009 10 16 0.00 0.00
12:58 pm 12:58 Sunny 40 4.5 17 -8.1 40 40 NE 5 7 29.78 1008 10 16 0.00 0.00
1:58 pm 13:58 Mostly Sunny 38 3.2 19 -7.5 46 46 E 3 6 29.81 1010 10 16 0.00 0.00
2:58 pm 14:58 Mostly Sunny 34 0.9 17 -8.4 50 50 SSE 6 9 29.82 1010 10 16 0.00 0.00
3:58 pm 15:58 Sunny 31 -0.6 17 -8.3 56 56 S 7 11 29.86 1011 10 16 0.00 0.00
4:58 pm 16:58 Clear 31 -0.8 17 -8.3 57 57 S 9 15 29.88 1012 10 16 0.00 0.00
5:58 pm 17:58 Clear 30 -1.1 17 -8.4 58 58 S 13 20 29.88 1012 10 16 0.00 0.00
6:58 pm 18:58 Clear 29 -1.4 16 -8.8 58 58 S 12 19 29.88 1012 10 16 0.00 0.00
7:58 pm 19:58 Clear 28 -2.1 16 -9 60 60 S 8 13 29.88 1012 10 16 0.00 0.00
8:58 pm 20:58 Mostly Clear 26 -3.4 15 -9.4 64 64 WNW 3 6 29.88 1012 10 16 0.00 0.00
9:58 pm 21:58 Mostly Cloudy 25 -3.7 15 -9.2 66 66 Calm 29.85 1011 10 16 0.00 0.00
10:58 pm 22:58 Mostly Cloudy 24 -4.6 16 -9.1 71 71 Calm 29.85 1011 10 16 0.00 0.00
11:58 pm 23:58 Clear 22 -5.7 15 -9.7 74 74 Calm 29.83 1010 10 16 0.00 0.00

Powered by AerisWeather